Dewpoint
67 70 71 71 71 71 71 70 70 71 71 71 71 71 71 71 71 70 70 69 69 69 68 66 68 66 66 66 65 65 66 65 65 66 65 65 64 66 66 66 66 64 66
68 70 70 70 71 71 70 70 70 70 71 71 71 71 70 70 70 69 69 68 68 67 65 65 65 65 66 65 65 66 65 66 66 65 64 63 63 64 66 65 65 63 64
69 70 70 70 71 71 71 71 71 71 71 71 71 70 70 70 69 68 68 68 67 67 65 65 64 64 64 64 65 64 63 64 63 62 62 60 60 64 64 64 63 62 62
66 68 69 70 70 70 70 70 71 71 71 70 70 70 69 69 68 68 67 67 67 67 65 64 65 64 64 64 64 63 62 62 61 60 58 58 59 64 63 62 62 61 61
63 63 68 70 69 69 70 70 70 70 70 70 69 69 69 68 68 67 67 66 67 67 66 66 66 65 64 64 63 62 61 61 60 57 55 56 59 61 62 61 59 59 57
65 63 65 66 66 67 67 66 68 70 69 69 69 69 68 68 67 67 67 66 66 66 64 64 65 66 64 63 62 61 61 60 58 55 56 57 57 60 59 57 57 57 57
64 63 64 64 63 64 64 64 64 67 68 68 68 68 68 67 66 66 66 66 64 63 62 65 65 64 64 62 61 61 60 58 54 53 54 55 58 60 58 58 56 56 55
64 64 61 63 63 63 63 61 64 66 68 68 68 68 67 66 65 66 66 64 63 64 65 65 64 63 62 61 60 60 60 58 54 53 53 56 56 58 58 57 55 55 55
63 61 60 62 62 62 61 61 64 66 66 67 66 67 66 65 65 64 64 63 62 65 65 64 63 62 62 61 60 60 59 57 53 53 53 53 57 57 57 56 56 55 55
61 61 61 62 60 60 61 61 63 65 66 66 66 66 65 65 64 63 62 61 61 63 64 63 62 62 61 60 60 59 59 56 52 53 53 55 58 57 57 56 55 55 54
60 60 61 60 60 59 60 60 62 65 66 65 65 65 63 62 60 58 58 59 59 61 62 63 62 61 60 60 59 59 55 52 53 54 54 58 57 57 56 55 54 53 53
60 60 61 60 60 59 60 58 62 64 63 63 63 62 61 59 57 58 58 59 59 59 61 62 62 60 58 56 56 55 52 53 53 54 55 58 57 56 56 55 54 53 52
59 60 60 59 59 59 58 58 60 62 63 63 61 61 58 58 58 56 53 53 53 53 51 56 54 51 53 53 52 52 52 53 53 55 57 58 56 56 55 54 53 53 51
59 59 59 59 59 59 58 57 59 61 62 61 61 58 57 56 54 52 49 48 48 47 44 45 47 46 48 50 51 52 52 53 53 55 57 58 57 55 55 54 53 52 51
58 58 59 59 59 58 57 57 59 61 61 61 60 57 55 53 52 50 48 48 48 48 44 42 43 45 47 48 50 51 52 52 53 54 55 58 57 56 55 55 53 52 50
58 58 59 59 59 58 56 57 59 60 61 61 59 56 53 52 51 48 48 48 49 47 46 42 40 42 42 44 47 50 51 52 53 54 54 56 57 57 56 54 53 52 51
57 58 58 58 58 58 56 58 58 59 60 60 58 55 54 51 50 48 48 48 49 49 47 44 43 40 39 39 41 45 48 51 52 53 53 54 56 57 57 56 54 52 52
55 57 57 58 58 57 57 58 59 59 59 59 57 55 54 52 50 49 48 49 50 51 48 46 44 42 40 39 39 41 43 46 49 51 52 53 54 54 57 57 56 54 53
55 57 57 58 57 57 57 57 57 58 58 59 57 54 53 52 51 49 49 51 52 52 50 48 48 46 43 41 39 39 41 41 43 42 48 50 52 54 54 57 57 57 56
55 56 57 57 57 57 56 55 56 57 58 58 57 53 52 52 52 52 51 52 53 52 51 50 48 49 46 44 40 39 40 40 41 43 43 44 48 51 52 52 55 54 55
54 55 56 56 56 56 55 52 54 55 56 57 56 54 53 53 53 54 53 55 54 52 51 50 50 49 49 47 44 43 42 41 40 39 40 44 45 47 50 51 51 50 51
52 54 54 54 54 55 55 54 55 53 53 54 55 56 56 55 55 55 55 56 55 54 52 51 50 49 49 48 45 43 41 41 43 41 39 39 43 46 48 49 49 49 47
52 53 53 53 53 53 54 53 52 52 53 52 53 53 55 56 57 57 56 56 55 54 53 52 50 50 49 50 48 46 43 41 43 45 43 41 40 43 44 47 47 46 47
53 53 53 52 52 51 50 50 49 49 49 49 50 51 52 55 56 56 56 56 56 55 53 53 52 52 52 49 50 50 49 47 45 44 44 44 43 39 40 41 42 44 44
50 52 52 52 51 50 50 50 49 48 48 46 48 48 49 52 54 55 56 56 57 56 55 55 53 52 52 51 51 48 48 48 47 47 46 47 46 46 45 43 43 41 41
51 51 52 51 51 51 50 49 49 48 48 47 47 48 50 51 52 54 55 56 56 56 56 56 56 54 53 52 51 48 48 48 46 46 46 45 45 45 41 43 43 42 42
Lifted_Index
-8 -8 -8 -7 -7 -7 -6 -6 -5 -5 -5 -5 -5 -4 -4 -4 -4 -3 -3 -3 -2 -1 -1 0 0 1 1 2 2 2 2 2 2 2 2 3 2 2 1 1 1 1 1
-8 -9 -8 -7 -7 -7 -7 -6 -6 -5 -5 -5 -5 -4 -4 -4 -4 -3 -3 -2 -2 -1 -0 1 1 1 2 2 2 2 2 2 2 3 3 3 3 2 2 1 2 2 2
-9 -9 -8 -8 -7 -7 -7 -6 -6 -6 -5 -5 -5 -4 -4 -3 -3 -3 -2 -2 -1 -1 0 1 2 2 2 2 3 3 3 3 4 4 4 3 3 2 2 2 3 3 3
-9 -8 -8 -7 -7 -7 -6 -6 -6 -6 -5 -5 -4 -4 -3 -3 -3 -2 -2 -2 -2 -1 0 1 2 2 2 3 3 3 4 4 5 5 5 4 3 3 3 3 4 4 5
-8 -8 -7 -6 -5 -5 -5 -5 -5 -5 -5 -4 -4 -4 -3 -2 -2 -2 -2 -2 -2 -1 -0 1 1 2 2 3 3 4 4 5 5 5 5 4 4 3 4 5 5 6 6
-7 -7 -6 -5 -4 -3 -3 -3 -3 -4 -4 -4 -4 -3 -3 -2 -2 -2 -2 -2 -1 -0 1 1 1 1 2 3 4 4 5 5 6 6 5 5 4 4 5 6 6 7 7
-7 -6 -6 -4 -3 -2 -2 -1 -1 -2 -4 -4 -4 -3 -2 -2 -1 -1 -1 -1 -0 1 1 1 1 2 3 4 4 5 5 6 6 6 6 5 5 5 6 6 7 7 7
-6 -6 -5 -4 -3 -2 -1 -1 -0 -1 -3 -3 -3 -3 -2 -1 -1 -1 -0 0 1 1 1 1 2 2 3 4 5 5 6 6 7 6 6 5 5 6 6 7 7 8 8
-5 -5 -4 -3 -3 -2 -1 0 0 -1 -2 -2 -2 -2 -1 -1 0 0 1 2 2 1 0 1 2 3 4 4 5 5 6 7 7 7 6 5 5 6 6 7 7 8 8
-4 -4 -4 -3 -2 -1 -0 1 1 0 -1 -1 -1 -1 -1 0 1 2 3 3 3 2 1 2 2 3 4 5 5 6 6 7 7 6 5 5 5 6 6 7 7 8 8
-3 -3 -3 -3 -2 -1 0 2 2 1 0 -0 -0 0 1 2 3 4 4 4 4 3 2 2 3 4 4 5 6 6 7 7 7 6 5 5 5 5 6 7 8 8 9
-3 -2 -2 -2 -2 -1 0 1 2 2 1 1 1 2 3 4 5 5 5 5 5 5 4 3 4 5 6 6 7 7 7 7 6 5 5 5 5 5 6 7 8 9 9
-2 -1 -1 -1 -1 -1 0 1 2 2 2 2 3 4 4 5 6 6 7 7 7 7 6 5 5 6 7 7 8 8 7 6 6 5 5 4 5 5 6 7 8 9 9
-1 -1 -0 -0 -0 0 1 2 2 2 2 3 4 5 6 6 7 8 9 10 9 8 8 7 7 7 7 8 8 8 7 6 5 5 5 4 5 5 6 7 8 9 9
-0 -0 0 0 1 1 1 2 2 2 3 3 4 5 7 7 8 9 10 10 10 9 9 8 8 8 8 8 8 8 6 5 5 5 5 4 4 5 5 6 7 8 9
0 1 1 1 1 2 2 2 3 3 3 3 4 6 7 7 8 9 9 9 9 8 8 8 7 7 8 8 8 7 6 5 5 5 5 5 4 5 5 6 7 8 9
1 1 2 2 2 2 3 3 3 3 3 3 4 6 7 7 7 7 7 7 7 7 6 5 5 6 7 7 7 7 6 6 6 5 5 5 5 5 5 5 6 7 8
2 2 2 3 3 3 3 4 3 3 2 3 4 5 6 6 6 6 6 6 6 5 5 4 3 4 4 4 5 6 6 6 6 6 5 5 5 5 5 5 6 6 7
2 2 3 3 3 3 3 3 3 3 2 3 4 5 6 6 6 6 6 6 5 5 4 3 3 2 2 2 3 4 5 6 6 6 6 6 6 6 5 5 5 6 6
2 2 2 3 3 3 3 3 3 2 2 3 4 5 6 6 6 6 6 6 5 4 3 3 2 2 1 1 2 3 4 4 5 6 6 7 7 7 6 6 6 6 6
2 2 3 3 3 2 2 3 3 2 2 3 4 5 6 6 6 6 6 5 4 3 3 2 2 1 1 1 1 2 2 3 3 4 6 7 7 8 7 7 6 6 6
3 3 3 2 2 2 2 3 3 3 2 3 4 4 5 5 5 5 5 4 3 2 2 1 1 1 1 1 1 1 1 2 2 3 4 5 6 7 7 7 7 7 7
3 3 3 2 2 2 2 3 3 3 3 3 4 4 4 4 4 4 3 2 1 1 1 1 1 1 1 1 1 1 1 1 2 2 3 4 5 6 7 8 8 7 7
4 3 3 2 2 2 2 3 4 4 4 4 4 4 3 3 3 3 2 2 1 1 1 1 1 1 1 1 1 1 1 1 2 2 3 3 4 5 6 8 7 7 7
4 4 3 3 2 2 3 3 3 4 4 4 4 4 3 3 3 3 3 2 1 1 1 1 1 1 1 1 1 1 1 2 2 2 3 3 4 4 6 7 7 6 7
3 4 3 3 2 2 3 3 3 3 4 4 4 4 3 3 3 3 3 3 2 1 1 0 0 0 0 0 1 1 1 2 2 2 3 3 3 4 5 6 6 6 7